Time,TemperatureF,DewpointF,PressureIn,WindDirection,WindDirectionDegrees,WindSpeedMPH,WindSpeedGustMPH,Humidity,HourlyPrecipIn,Conditions,Clouds,dailyrainin,SoftwareType,DateUTC
2013-03-02 00:01:00,34.0,22.0,-100.00,SW,236,22.0,34.0,62,0.00,,,-99.99,,2013-03-02 07:01:00,
2013-03-02 00:11:00,34.0,22.0,-100.00,West,261,17.0,29.0,62,0.00,,,-99.99,,2013-03-02 07:11:00,
2013-03-02 00:21:00,34.0,22.0,-100.00,WSW,254,16.0,31.0,61,0.00,,,-99.99,,2013-03-02 07:21:00,
2013-03-02 00:32:00,33.0,22.0,-100.00,WSW,241,18.0,28.0,63,0.00,,,-99.99,,2013-03-02 07:32:00,
2013-03-02 00:42:00,33.0,22.0,-100.00,WSW,241,17.0,27.0,63,0.00,,,-99.99,,2013-03-02 07:42:00,
2013-03-02 00:51:00,33.0,22.0,-100.00,WSW,246,16.0,27.0,63,0.00,,,-99.99,,2013-03-02 07:51:00,
2013-03-02 01:01:00,34.0,22.0,-100.00,WSW,250,17.0,27.0,61,0.00,,,-99.99,,2013-03-02 08:01:00,
2013-03-02 01:11:00,34.0,22.0,-100.00,WSW,254,16.0,24.0,60,0.00,,,-99.99,,2013-03-02 08:11:00,
2013-03-02 01:21:00,33.0,22.0,-100.00,West,263,17.0,26.0,62,0.00,,,-99.99,,2013-03-02 08:21:00,
2013-03-02 01:32:00,33.0,22.0,-100.00,West,261,18.0,24.0,63,0.00,,,-99.99,,2013-03-02 08:32:00,
2013-03-02 01:42:00,33.0,22.0,-100.00,WSW,256,16.0,27.0,64,0.00,,,-99.99,,2013-03-02 08:42:00,
2013-03-02 01:52:00,33.0,22.0,-100.00,WSW,256,16.0,27.0,64,0.00,,,-99.99,,2013-03-02 08:52:00,
2013-03-02 02:01:00,33.0,22.0,-100.00,WSW,256,16.0,27.0,64,0.00,,,-99.99,,2013-03-02 09:01:00,
2013-03-02 02:11:00,33.0,22.0,-100.00,WSW,256,16.0,27.0,64,0.00,,,-99.99,,2013-03-02 09:11:00,
2013-03-02 02:21:00,33.0,22.0,-100.00,WSW,256,16.0,27.0,64,0.00,,,-99.99,,2013-03-02 09:21:00,
2013-03-02 08:22:00,34.0,20.0,-100.00,WNW,296,2.0,7.0,55,0.00,,,-99.99,,2013-03-02 15:22:00,
2013-03-02 08:32:00,35.0,21.0,-100.00,NNE,20,6.0,14.0,57,0.00,,,-99.99,,2013-03-02 15:32:00,
2013-03-02 08:42:00,36.0,20.0,-100.00,ENE,61,6.0,11.0,53,0.00,,,-99.99,,2013-03-02 15:42:00,
2013-03-02 08:52:00,35.0,21.0,-100.00,WSW,246,9.0,17.0,55,0.00,,,-99.99,,2013-03-02 15:52:00,
2013-03-02 09:01:00,35.0,21.0,-100.00,WSW,253,12.0,30.0,57,0.00,,,-99.99,,2013-03-02 16:01:00,
2013-03-02 09:11:00,34.0,21.0,-100.00,WSW,246,14.0,30.0,59,0.00,,,-99.99,,2013-03-02 16:11:00,
2013-03-02 09:21:00,34.0,21.0,-100.00,WSW,247,14.0,23.0,58,0.00,,,-99.99,,2013-03-02 16:21:00,
2013-03-02 09:32:00,35.0,22.0,-100.00,SW,236,17.0,32.0,58,0.00,,,-99.99,,2013-03-02 16:32:00,
2013-03-02 09:41:00,36.0,22.0,-100.00,WSW,240,14.0,22.0,56,0.00,,,-99.99,,2013-03-02 16:41:00,
2013-03-02 09:51:00,37.0,22.0,-100.00,WSW,240,14.0,22.0,53,0.00,,,-99.99,,2013-03-02 16:51:00,
2013-03-02 10:01:00,38.0,20.0,-100.00,WSW,246,14.0,22.0,49,0.00,,,-99.99,,2013-03-02 17:01:00,
2013-03-02 10:11:00,39.0,21.0,-100.00,WSW,243,12.0,19.0,48,0.00,,,-99.99,,2013-03-02 17:11:00,
2013-03-02 10:21:00,40.0,20.0,-100.00,WSW,241,14.0,24.0,43,0.00,,,-99.99,,2013-03-02 17:21:00,
2013-03-02 10:32:00,40.0,21.0,-100.00,WSW,244,14.0,26.0,45,0.00,,,-99.99,,2013-03-02 17:32:00,
2013-03-02 10:42:00,41.0,21.0,-100.00,WSW,247,14.0,22.0,45,0.00,,,-99.99,,2013-03-02 17:42:00,
2013-03-02 10:52:00,41.0,19.0,-100.00,West,261,19.0,32.0,40,0.00,,,-99.99,,2013-03-02 17:52:00,
2013-03-02 11:02:00,41.0,20.0,-100.00,WSW,254,17.0,32.0,42,0.00,,,-99.99,,2013-03-02 18:02:00,
2013-03-02 11:11:00,42.0,19.0,-100.00,WSW,254,17.0,32.0,39,0.00,,,-99.99,,2013-03-02 18:11:00,
2013-03-02 11:22:00,42.0,20.0,-100.00,WSW,258,17.0,27.0,41,0.00,,,-99.99,,2013-03-02 18:22:00,
2013-03-02 11:32:00,42.0,22.0,-100.00,WSW,251,14.0,24.0,45,0.00,,,-99.99,,2013-03-02 18:32:00,
2013-03-02 11:42:00,43.0,19.0,-100.00,WSW,239,12.0,27.0,39,0.00,,,-99.99,,2013-03-02 18:42:00,
2013-03-02 11:52:00,44.0,17.0,-100.00,WSW,250,15.0,26.0,33,0.00,,,-99.99,,2013-03-02 18:52:00,
2013-03-02 12:01:00,45.0,17.0,-100.00,WSW,253,18.0,27.0,33,0.00,,,-99.99,,2013-03-02 19:01:00,
2013-03-02 12:11:00,45.0,18.0,-100.00,WSW,247,17.0,27.0,34,0.00,,,-99.99,,2013-03-02 19:11:00,
2013-03-02 12:21:00,45.0,18.0,-100.00,WSW,256,18.0,26.0,33,0.00,,,-99.99,,2013-03-02 19:21:00,
2013-03-02 12:32:00,45.0,18.0,-100.00,WSW,254,19.0,29.0,34,0.00,,,-99.99,,2013-03-02 19:32:00,
2013-03-02 12:42:00,45.0,18.0,-100.00,WSW,258,17.0,26.0,33,0.00,,,-99.99,,2013-03-02 19:42:00,
2013-03-02 12:52:00,45.0,17.0,-100.00,WSW,257,17.0,25.0,32,0.00,,,-99.99,,2013-03-02 19:52:00,
2013-03-02 13:01:00,45.0,18.0,-100.00,WSW,253,17.0,26.0,33,0.00,,,-99.99,,2013-03-02 20:01:00,
2013-03-02 13:11:00,45.0,18.0,-100.00,WSW,248,15.0,26.0,34,0.00,,,-99.99,,2013-03-02 20:11:00,
2013-03-02 13:21:00,46.0,17.0,-100.00,WSW,247,14.0,21.0,31,0.00,,,-99.99,,2013-03-02 20:21:00,
2013-03-02 13:32:00,46.0,17.0,-100.00,WSW,247,16.0,24.0,30,0.00,,,-99.99,,2013-03-02 20:32:00,
2013-03-02 13:42:00,46.0,17.0,-100.00,WSW,246,16.0,27.0,31,0.00,,,-99.99,,2013-03-02 20:42:00,
2013-03-02 13:52:00,46.0,16.0,-100.00,WSW,251,18.0,26.0,30,0.00,,,-99.99,,2013-03-02 20:52:00,
2013-03-02 14:02:00,46.0,17.0,-100.00,WSW,251,18.0,28.0,31,0.00,,,-99.99,,2013-03-02 21:02:00,
2013-03-02 14:11:00,47.0,18.0,-100.00,WSW,251,16.0,25.0,31,0.00,,,-99.99,,2013-03-02 21:11:00,
2013-03-02 14:22:00,47.0,17.0,-100.00,WSW,253,15.0,22.0,30,0.00,,,-99.99,,2013-03-02 21:22:00,
2013-03-02 14:32:00,47.0,17.0,-100.00,WSW,254,17.0,25.0,29,0.00,,,-99.99,,2013-03-02 21:32:00,
2013-03-02 14:42:00,47.0,18.0,-100.00,WSW,243,17.0,27.0,31,0.00,,,-99.99,,2013-03-02 21:42:00,
2013-03-02 14:52:00,46.0,18.0,-100.00,SW,234,17.0,27.0,32,0.00,,,-99.99,,2013-03-02 21:52:00,
2013-03-02 15:02:00,46.0,18.0,-100.00,SW,233,16.0,27.0,32,0.00,,,-99.99,,2013-03-02 22:02:00,
2013-03-02 15:11:00,46.0,18.0,-100.00,SW,230,16.0,28.0,33,0.00,,,-99.99,,2013-03-02 22:11:00,
2013-03-02 15:21:00,46.0,19.0,-100.00,SW,232,17.0,26.0,33,0.00,,,-99.99,,2013-03-02 22:21:00,
2013-03-02 15:32:00,46.0,18.0,-100.00,SW,232,15.0,26.0,32,0.00,,,-99.99,,2013-03-02 22:32:00,
2013-03-02 15:42:00,46.0,16.0,-100.00,SW,236,17.0,30.0,30,0.00,,,-99.99,,2013-03-02 22:42:00,
2013-03-02 15:51:00,46.0,16.0,-100.00,WSW,237,15.0,28.0,29,0.00,,,-99.99,,2013-03-02 22:51:00,
2013-03-02 16:01:00,46.0,17.0,-100.00,SW,234,18.0,27.0,32,0.00,,,-99.99,,2013-03-02 23:01:00,
2013-03-02 16:11:00,46.0,18.0,-100.00,SW,230,17.0,26.0,33,0.00,,,-99.99,,2013-03-02 23:11:00,
2013-03-02 16:21:00,45.0,18.0,-100.00,SW,232,15.0,26.0,33,0.00,,,-99.99,,2013-03-02 23:21:00,
2013-03-02 16:32:00,45.0,19.0,-100.00,SW,229,13.0,23.0,34,0.00,,,-99.99,,2013-03-02 23:32:00,
2013-03-02 16:42:00,45.0,18.0,-100.00,SW,234,11.0,18.0,32,0.00,,,-99.99,,2013-03-02 23:42:00,
2013-03-02 16:52:00,45.0,17.0,-100.00,WSW,248,11.0,19.0,32,0.00,,,-99.99,,2013-03-02 23:52:00,
2013-03-02 17:02:00,44.0,18.0,-100.00,WSW,244,12.0,20.0,35,0.00,,,-99.99,,2013-03-03 00:02:00,
2013-03-02 17:11:00,43.0,18.0,-100.00,WSW,248,12.0,20.0,35,0.00,,,-99.99,,2013-03-03 00:11:00,
2013-03-02 17:22:00,43.0,17.0,-100.00,South,191,7.0,17.0,35,0.00,,,-99.99,,2013-03-03 00:22:00,
2013-03-02 17:32:00,43.0,16.0,-100.00,SW,220,6.0,12.0,34,0.00,,,-99.99,,2013-03-03 00:32:00,
2013-03-02 17:42:00,43.0,16.0,-100.00,WSW,254,11.0,19.0,33,0.00,,,-99.99,,2013-03-03 00:42:00,
2013-03-02 17:52:00,42.0,16.0,-100.00,West,267,7.0,12.0,35,0.00,,,-99.99,,2013-03-03 00:52:00,
2013-03-02 18:01:00,41.0,16.0,-100.00,West,263,10.0,20.0,35,0.00,,,-99.99,,2013-03-03 01:01:00,
2013-03-02 18:11:00,41.0,15.0,-100.00,West,265,11.0,20.0,35,0.00,,,-99.99,,2013-03-03 01:11:00,
2013-03-02 18:21:00,40.0,16.0,-100.00,West,264,11.0,17.0,37,0.00,,,-99.99,,2013-03-03 01:21:00,
2013-03-02 18:32:00,40.0,16.0,-100.00,West,264,9.0,14.0,37,0.00,,,-99.99,,2013-03-03 01:32:00,
2013-03-02 18:41:00,41.0,15.0,-100.00,WSW,248,7.0,18.0,35,0.00,,,-99.99,,2013-03-03 01:41:00,
2013-03-02 18:52:00,41.0,16.0,-100.00,WSW,240,7.0,21.0,36,0.00,,,-99.99,,2013-03-03 01:52:00,
2013-03-02 19:01:00,40.0,16.0,-100.00,SSW,200,11.0,21.0,37,0.00,,,-99.99,,2013-03-03 02:01:00,
2013-03-02 19:11:00,41.0,15.0,-100.00,SSE,164,11.0,19.0,34,0.00,,,-99.99,,2013-03-03 02:11:00,
2013-03-02 19:21:00,40.0,15.0,-100.00,SSE,167,8.0,17.0,36,0.00,,,-99.99,,2013-03-03 02:21:00,
2013-03-02 19:32:00,40.0,15.0,-100.00,South,171,8.0,15.0,35,0.00,,,-99.99,,2013-03-03 02:32:00,
2013-03-02 19:41:00,40.0,16.0,-100.00,SSE,165,7.0,12.0,38,0.00,,,-99.99,,2013-03-03 02:41:00,
2013-03-02 19:52:00,40.0,16.0,-100.00,South,169,7.0,13.0,37,0.00,,,-99.99,,2013-03-03 02:52:00,
2013-03-02 20:01:00,37.0,19.0,-100.00,SSE,165,9.0,15.0,47,0.00,,,-99.99,,2013-03-03 03:01:00,
2013-03-02 20:11:00,37.0,20.0,-100.00,South,172,8.0,15.0,49,0.00,,,-99.99,,2013-03-03 03:11:00,
2013-03-02 20:21:00,37.0,19.0,-100.00,South,169,9.0,13.0,47,0.00,,,-99.99,,2013-03-03 03:21:00,
2013-03-02 20:31:00,38.0,18.0,-100.00,South,169,8.0,16.0,45,0.00,,,-99.99,,2013-03-03 03:31:00,
2013-03-02 20:41:00,40.0,18.0,-100.00,SSE,155,8.0,16.0,40,0.00,,,-99.99,,2013-03-03 03:41:00,
2013-03-02 20:51:00,38.0,20.0,-100.00,SSE,161,7.0,11.0,48,0.00,,,-99.99,,2013-03-03 03:51:00,
2013-03-02 21:01:00,36.0,20.0,-100.00,SE,127,9.0,14.0,53,0.00,,,-99.99,,2013-03-03 04:01:00,
2013-03-02 21:11:00,35.0,20.0,-100.00,ESE,107,7.0,12.0,54,0.00,,,-99.99,,2013-03-03 04:11:00,
2013-03-02 21:21:00,36.0,19.0,-100.00,ESE,121,10.0,16.0,50,0.00,,,-99.99,,2013-03-03 04:21:00,
2013-03-02 21:31:00,36.0,20.0,-100.00,SE,134,11.0,15.0,52,0.00,,,-99.99,,2013-03-03 04:31:00,
2013-03-02 21:41:00,38.0,16.0,-100.00,SE,138,12.0,19.0,40,0.00,,,-99.99,,2013-03-03 04:41:00,
2013-03-02 21:51:00,38.0,17.0,-100.00,SE,140,11.0,16.0,43,0.00,,,-99.99,,2013-03-03 04:51:00,
2013-03-02 22:02:00,36.0,19.0,-100.00,SE,138,11.0,16.0,49,0.00,,,-99.99,,2013-03-03 05:02:00,
2013-03-02 22:11:00,37.0,18.0,-100.00,SE,144,12.0,17.0,46,0.00,,,-99.99,,2013-03-03 05:11:00,
2013-03-02 22:22:00,36.0,19.0,-100.00,SSE,147,12.0,16.0,50,0.00,,,-99.99,,2013-03-03 05:22:00,
2013-03-02 22:32:00,35.0,19.0,-100.00,SE,141,11.0,14.0,52,0.00,,,-99.99,,2013-03-03 05:32:00,
2013-03-02 22:42:00,35.0,20.0,-100.00,East,88,6.0,12.0,54,0.00,,,-99.99,,2013-03-03 05:42:00,
2013-03-02 22:52:00,35.0,20.0,-100.00,East,83,4.0,7.0,53,0.00,,,-99.99,,2013-03-03 05:52:00,
2013-03-02 23:02:00,36.0,19.0,-100.00,East,85,6.0,10.0,49,0.00,,,-99.99,,2013-03-03 06:02:00,
2013-03-02 23:11:00,36.0,18.0,-100.00,ESE,107,7.0,12.0,49,0.00,,,-99.99,,2013-03-03 06:11:00,
2013-03-02 23:21:00,37.0,17.0,-100.00,SE,138,6.0,12.0,44,0.00,,,-99.99,,2013-03-03 06:21:00,
2013-03-02 23:31:00,40.0,14.0,-100.00,South,172,6.0,15.0,34,0.00,,,-99.99,,2013-03-03 06:31:00,
2013-03-02 23:42:00,38.0,15.0,-100.00,SSE,168,7.0,20.0,39,0.00,,,-99.99,,2013-03-03 06:42:00,
2013-03-02 23:52:00,37.0,17.0,-100.00,SE,134,11.0,16.0,42,0.00,,,-99.99,,2013-03-03 06:52:00,